Location: Tabor
(49.4170°N, 14.6670°E)
Time: 08:01:22
(UTC+02:00)

ISS - Visible Passes

Search period start: 08 September 2024 00:00
Search period end: 18 September 2024 00:00
Orbit: 415 x 426 km, 51.6° (Epoch: 07 September)

Date Brightness Start Highest point End Pass type
(mag) Time Alt. Az. Time Alt. Az. Time Alt. Az.
10 Sep -1.5 20:39:10 10° SSE 20:39:34 11° SSE 20:39:34 11° SSE visible
11 Sep -1.9 21:27:00 10° SW 21:28:22 21° SSW 21:28:22 21° SSW visible
12 Sep -2.9 20:40:14 10° SSW 20:43:13 30° SE 20:43:50 28° SE visible
12 Sep -0.8 22:16:29 10° WSW 22:16:52 13° WSW 22:16:52 13° WSW visible
13 Sep -2.3 19:53:43 10° SSW 19:56:18 21° SE 19:58:54 10° E visible
13 Sep -3.2 21:29:25 10° WSW 21:32:06 53° WSW 21:32:06 53° WSW visible
14 Sep -3.8 20:42:26 10° SW 20:45:45 62° SSE 20:47:10 31° E visible
14 Sep -1.0 22:19:19 10° W 22:20:10 16° W 22:20:10 16° W visible
15 Sep -3.3 19:55:33 10° SW 19:58:46 44° SSE 20:02:01 10° ENE visible
15 Sep -3.1 21:32:12 10° W 21:35:07 56° NW 21:35:07 56° NW visible
16 Sep -3.7 20:45:08 10° WSW 20:48:30 77° NNW 20:49:58 31° ENE visible
16 Sep -0.8 22:22:12 10° WNW 22:22:57 16° WNW 22:22:57 16° WNW visible
17 Sep -3.8 19:58:06 10° WSW 20:01:28 85° SSE 20:04:47 11° ENE visible
17 Sep -2.7 21:35:08 10° W 21:37:46 45° NW 21:37:46 45° NW visible
